Content
SEND FEEDBACK

Daily
Averages
Monthly
Summary
United States of America

ST. LOUIS, MISSOURI


Home > North America > United States > Missouri
Elevation: 163 meters     Latitude: 38 45N     Longitude: 090 22W

WEATHER
 
SELECT A DAY
Number of Records: 196,364;   Date Range: 1/1/95 - 7/26/14
 
SHARE

PRINT THIS DATA

[ ← Previous Day ]
WEATHER ALMANAC - 16 APRIL, 2013
[ Next Day → ]
[ °F ]   °C
Weather ElementAverageHighLow
Temperature8.6 °C10 °C (12:54 am)7 °C (10:29 am)
Dewpoint6.7 °C7.8 °C (12:54 am)5.6 °C (9:54 am)
Humidity87.9 %93 % (3:35 am)83 % (1:54 am)
Barometer1018.6 hPa1021.3 hPa (9:54 pm)1014.2 hPa (12:54 am)
Wind Speed11.4 km/h22.2 km/h (5:02 am)
Wind Gust29.6 km/h (12:54 am)
Weather ElementAverage
Visibility11.3 km
Wind DirectionENE (56.6 °)

Weather ElementTotal
Precipitation15.49 mm
Heating Degree Days9.8 (Base 18.3)
Averaged from 41 records on 16 April, 2013
WEATHER CONDITIONS BREAKOUT
WIND DIRECTION BREAKOUT
WEATHER BY HOUR - 16 APRIL, 2013
[ °F ]   °C
Local TimeTemperatureDewpointHumidityBarometerVisibilityWind DirectionWind SpeedGust SpeedPrecipitationEventsConditions
12:54 AM10 °C7.8 °C86 %1014.2 hPa16.1 kmNorth (10°)20.4 km/h29.6 km/hOvercast
1:50 AM9 °C7 °C87 %1015.2 hPa16.1 kmNorth (360°)13 km/h29.6 km/h0 mmRainLight Rain
1:54 AM9.4 °C6.7 °C83 %1015.2 hPa16.1 kmNorth (10°)9.3 km/h0 mmOvercast
2:54 AM8.9 °C6.7 °C86 %1014.9 hPa16.1 kmNE (50°)13 km/h0 mmOvercast
3:24 AM9 °C7 °C87 %1015.9 hPa6.4 kmVariable5.6 km/h0 mmRain-ThunderstormLight Rain
3:35 AM8 °C7 °C93 %1016.3 hPa3.2 kmNE (40°)5.6 km/h2.54 mmRain-ThunderstormHeavy Thunderstorms and Rain
3:54 AM8.9 °C7.2 °C89 %1015.6 hPa4.8 kmNNE (30°)13 km/h5.59 mmRain-ThunderstormRain
4:02 AM9 °C7 °C87 %1016.3 hPa9.7 kmCalm0.25 mmRain-ThunderstormLight Rain
4:12 AM9 °C7 °C87 %1015.6 hPa12.9 kmNNE (20°)11.1 km/h0.51 mmRain-ThunderstormLight Rain
4:25 AM9 °C7 °C87 %1016.3 hPa12.9 kmSSE (150°)11.1 km/h0.76 mmRain-ThunderstormRain
4:28 AM9 °C7 °C87 %1016.9 hPa11.3 kmCalm1.02 mmRain-ThunderstormRain
4:54 AM8.9 °C7.2 °C89 %1017.9 hPa16.1 kmNorth (350°)5.6 km/h1.52 mmRainRain
5:02 AM9 °C7 °C87 %1015.9 hPa9.7 kmNE (40°)22.2 km/h0.25 mmRain-ThunderstormRain
5:26 AM9 °C7 °C87 %1018.3 hPa16.1 kmNW (320°)16.7 km/h0.76 mmRainLight Rain
5:54 AM8.3 °C6.7 °C90 %1017.3 hPa16.1 kmNorth (10°)16.7 km/h27.8 km/h0.76 mmOvercast
6:47 AM8 °C6 °C87 %1017.9 hPa16.1 kmNE (40°)13 km/h0 mmRainLight Rain
6:54 AM8 °C6 °C87 %1018.3 hPa16.1 kmNorth (10°)14.8 km/hRainLight Rain
7:01 AM8 °C6 °C87 %1018.3 hPa16.1 kmNNE (20°)13 km/h0 mmRainLight Rain
7:54 AM7.8 °C6.1 °C89 %1019 hPa16.1 kmNE (50°)14.8 km/h0 mmOvercast
8:54 AM7.8 °C6.1 °C89 %1019.6 hPa8 kmNNE (30°)11.1 km/h0 mmRainLight Rain
9:08 AM8 °C6 °C87 %1019.3 hPa6.4 kmNE (40°)14.8 km/h0 mmRainLight Rain
9:54 AM7.2 °C5.6 °C90 %1020 hPa9.7 kmNNE (20°)13 km/h0 mmOvercast
10:29 AM7 °C6 °C93 %1020.3 hPa4.8 kmNorth (10°)13 km/hThunderstormOvercast
10:54 AM7.2 °C5.6 °C90 %1020.7 hPa4 kmNNE (20°)16.7 km/hThunderstormOvercast
11:54 AM7.2 °C5.6 °C90 %1020 hPa4.8 kmENE (60°)13 km/h1.02 mmRain-ThunderstormLight Thunderstorms and Rain
12:43 PM8 °C6 °C87 %1020 hPa14.5 kmNNE (30°)11.1 km/h0.25 mmOvercast
12:54 PM7.8 °C6.1 °C89 %1020.3 hPa8 kmNE (40°)11.1 km/h0.25 mmOvercast
1:01 PM8 °C6 °C87 %1020 hPa8 kmCalmOvercast
1:54 PM8.3 °C6.7 °C90 %1020 hPa4.8 kmNE (40°)9.3 km/hOvercast
2:41 PM8 °C7 °C93 %1020.3 hPa4 kmNNE (20°)11.1 km/hOvercast
2:54 PM8.3 °C6.7 °C90 %1020 hPa3.2 kmNE (40°)14.8 km/hOvercast
3:54 PM8.3 °C6.7 °C90 %1020.3 hPa9.7 kmNE (40°)16.7 km/hOvercast
4:54 PM8.3 °C6.7 °C90 %1020 hPa8 kmNE (40°)11.1 km/hOvercast
5:54 PM8.9 °C7.2 °C89 %1020.3 hPa11.3 kmNE (50°)16.7 km/hOvercast
6:54 PM8.9 °C7.2 °C89 %1020.3 hPa11.3 kmNNE (30°)11.1 km/hOvercast
7:36 PM9 °C7 °C87 %1020.7 hPa16.1 kmNE (40°)11.1 km/hOvercast
7:54 PM8.9 °C6.7 °C86 %1021 hPa16.1 kmNE (50°)11.1 km/hOvercast
8:54 PM9.4 °C6.7 °C83 %1021 hPa16.1 kmNE (50°)11.1 km/hOvercast
9:54 PM9.4 °C7.2 °C86 %1021.3 hPa16.1 kmNE (50°)7.4 km/hOvercast
10:54 PM10 °C7.2 °C83 %1020.7 hPa16.1 kmNE (40°)7.4 km/hOvercast
11:54 PM10 °C7.2 °C83 %1020.3 hPa16.1 kmENE (70°)7.4 km/hOvercast
Hourly data recorded from KSUS, located 0 kilometers away from St. Louis, Missouri







STORIES FROM OUR PARTNERS